HUN68Z LHBP-EETN

Flight info

Callsign HUN68Z
Flight time N/A
Altitude 37000
Route WITRI DCT MIZOL DCT IBLIZ DCT KEKED DCT PODAN DCT GERVI DCT SUWGI DCT BOKSU DCT GUNTA DCT ATRAK DCT RIA DCT RIGSO DCT SOKVA DCT KEMET
Aircraft A21N/M-SDE2E3FGHIJ1RWXY/LB1

Departure

Time 2026-05-06 11:32
Airport Budapest Liszt Ferenc International Airport (LHBP)

Arrival

Time N/A
Airport Lennart Meri Tallinn Airport (EETN)
Time Latitude Longitude Altitude Speed Heading
2026-05-06 10:57 47.43424 19.26302 463 ft 0 kts 222°
2026-05-06 11:22 47.43435 19.26317 462 ft 4 kts 219°
2026-05-06 11:22 47.43457 19.26338 463 ft 4 kts 198°
2026-05-06 11:23 47.43479 19.26340 463 ft 4 kts 142°
2026-05-06 11:23 47.43495 19.26316 463 ft 4 kts 132°
2026-05-06 11:23 47.43514 19.26286 463 ft 4 kts 133°
2026-05-06 11:23 47.43531 19.26259 463 ft 4 kts 131°
2026-05-06 11:24 47.43547 19.26227 463 ft 4 kts 115°
2026-05-06 11:24 47.43554 19.26190 463 ft 4 kts 92°
2026-05-06 11:24 47.43550 19.26153 463 ft 4 kts 60°
2026-05-06 11:24 47.43541 19.26136 462 ft 0 kts 42°
2026-05-06 11:26 47.43542 19.26137 463 ft 1 kts 42°
2026-05-06 11:26 47.43553 19.26151 461 ft 3 kts 42°
2026-05-06 11:27 47.43580 19.26177 463 ft 6 kts 15°
2026-05-06 11:27 47.43626 19.26146 461 ft 9 kts 314°
2026-05-06 11:27 47.43676 19.26067 461 ft 12 kts 313°
2026-05-06 11:27 47.43739 19.25975 461 ft 14 kts 336°
2026-05-06 11:28 47.43825 19.26031 460 ft 15 kts 43°
2026-05-06 11:28 47.43906 19.26142 462 ft 17 kts 42°
2026-05-06 11:28 47.43986 19.26248 463 ft 7 kts 42°
2026-05-06 11:28 47.43997 19.26263 465 ft 0 kts 41°
2026-05-06 11:29 47.44003 19.26270 465 ft 3 kts 41°
2026-05-06 11:30 47.44026 19.26301 467 ft 6 kts 47°
2026-05-06 11:30 47.44059 19.26370 472 ft 10 kts 67°
2026-05-06 11:30 47.44076 19.26480 476 ft 6 kts 82°
2026-05-06 11:30 47.44063 19.26537 475 ft 1 kts 131°
2026-05-06 11:31 47.44050 19.26557 475 ft 17 kts 132°
2026-05-06 11:31 47.43917 19.26771 476 ft 68 kts 133°
2026-05-06 11:31 47.43442 19.27537 475 ft 133 kts 133°
2026-05-06 11:32 47.42451 19.29150 747 ft 167 kts 133°
2026-05-06 11:32 47.41930 19.30005 1207 ft 165 kts 132°
2026-05-06 11:32 47.41339 19.31447 1845 ft 167 kts 118°
2026-05-06 11:32 47.40811 19.32989 2473 ft 169 kts 120°
2026-05-06 11:33 47.40251 19.34530 3110 ft 172 kts 121°
2026-05-06 11:33 47.39675 19.36103 3794 ft 178 kts 121°
2026-05-06 11:33 47.39045 19.37819 4263 ft 203 kts 119°
2026-05-06 11:33 47.38788 19.39950 4696 ft 229 kts 84°
2026-05-06 11:34 47.39249 19.42302 5183 ft 253 kts 62°
2026-05-06 11:34 47.40378 19.44453 5635 ft 276 kts 47°
2026-05-06 11:34 47.41725 19.46553 6352 ft 284 kts 47°
2026-05-06 11:34 47.43097 19.48679 7214 ft 288 kts 47°
2026-05-06 11:35 47.44483 19.50849 8074 ft 292 kts 47°
2026-05-06 11:35 47.45881 19.53058 8900 ft 297 kts 47°
2026-05-06 11:35 47.47298 19.55315 9715 ft 301 kts 47°
2026-05-06 11:35 47.48754 19.57619 10376 ft 315 kts 47°
2026-05-06 11:36 47.50293 19.60080 10737 ft 336 kts 47°
2026-05-06 11:36 47.51907 19.62663 11050 ft 357 kts 47°
2026-05-06 11:36 47.53627 19.65444 11506 ft 371 kts 47°
2026-05-06 11:36 47.55400 19.68272 12227 ft 376 kts 47°
2026-05-06 11:37 47.57188 19.71124 13000 ft 379 kts 47°
2026-05-06 11:37 47.58986 19.74019 13745 ft 383 kts 47°
2026-05-06 11:37 47.60793 19.76948 14443 ft 386 kts 47°
2026-05-06 11:37 47.62619 19.79895 15127 ft 389 kts 47°
2026-05-06 11:38 47.64421 19.82844 15751 ft 393 kts 48°
2026-05-06 11:38 47.66260 19.85868 16379 ft 396 kts 47°
2026-05-06 11:38 47.68128 19.88911 16985 ft 400 kts 47°
2026-05-06 11:38 47.70015 19.91988 17591 ft 402 kts 47°
2026-05-06 11:39 47.71910 19.95071 18172 ft 405 kts 47°
2026-05-06 11:39 47.73819 19.98182 18726 ft 409 kts 47°
2026-05-06 11:39 47.75751 20.01307 19267 ft 412 kts 47°
2026-05-06 11:39 47.77670 20.04425 19800 ft 415 kts 47°
2026-05-06 11:40 47.79622 20.07614 20329 ft 418 kts 47°
2026-05-06 11:40 47.81601 20.10813 20855 ft 422 kts 47°
2026-05-06 11:40 47.83578 20.14061 21366 ft 425 kts 47°
2026-05-06 11:40 47.85583 20.17356 21892 ft 428 kts 47°
2026-05-06 11:41 47.87597 20.20635 22401 ft 431 kts 47°
2026-05-06 11:41 47.89624 20.23956 22885 ft 434 kts 47°
2026-05-06 11:41 47.91659 20.27312 23377 ft 437 kts 47°
2026-05-06 11:41 47.93695 20.30690 23855 ft 440 kts 47°
2026-05-06 11:42 47.95749 20.34106 24299 ft 443 kts 47°
2026-05-06 11:42 47.97791 20.37493 24735 ft 446 kts 47°
2026-05-06 11:42 47.99879 20.40948 25161 ft 449 kts 47°
2026-05-06 11:42 48.01978 20.44415 25569 ft 452 kts 47°
2026-05-06 11:43 48.04100 20.47904 25955 ft 455 kts 47°
2026-05-06 11:43 48.06235 20.51439 26350 ft 458 kts 47°
2026-05-06 11:43 48.08350 20.55005 26730 ft 460 kts 47°
2026-05-06 11:44 48.12605 20.62149 27439 ft 465 kts 47°
2026-05-06 11:44 48.14771 20.65768 27779 ft 467 kts 47°
2026-05-06 11:44 48.16948 20.69404 28108 ft 469 kts 47°
2026-05-06 11:44 48.19154 20.73051 28439 ft 471 kts 47°
2026-05-06 11:45 48.21355 20.76699 28822 ft 471 kts 47°
2026-05-06 11:45 48.23541 20.80351 29253 ft 470 kts 47°
2026-05-06 11:45 48.25720 20.84009 29660 ft 469 kts 47°
2026-05-06 11:45 48.27891 20.87663 30071 ft 468 kts 47°
2026-05-06 11:46 48.30027 20.91262 30479 ft 467 kts 47°
2026-05-06 11:46 48.32191 20.94913 30865 ft 465 kts 47°
2026-05-06 11:46 48.34339 20.98545 31256 ft 464 kts 47°
2026-05-06 11:46 48.36479 21.02171 31629 ft 463 kts 47°
2026-05-06 11:47 48.38612 21.05792 32003 ft 462 kts 47°
2026-05-06 11:47 48.40746 21.09413 32369 ft 460 kts 47°
2026-05-06 11:47 48.42848 21.12985 32686 ft 460 kts 47°
2026-05-06 11:47 48.44968 21.16596 33011 ft 459 kts 47°
2026-05-06 11:48 48.47078 21.20195 33325 ft 458 kts 47°
2026-05-06 11:48 48.49243 21.23702 33633 ft 456 kts 42°
2026-05-06 11:48 48.51724 21.26653 33896 ft 454 kts 31°
2026-05-06 11:48 48.54527 21.28793 34129 ft 451 kts 19°
2026-05-06 11:49 48.57556 21.30032 34350 ft 449 kts
2026-05-06 11:49 48.60655 21.30600 34565 ft 448 kts
2026-05-06 11:49 48.63762 21.31064 34784 ft 448 kts
2026-05-06 11:49 48.66871 21.31535 34998 ft 448 kts
2026-05-06 11:50 48.69946 21.32021 35196 ft 448 kts
2026-05-06 11:50 48.73045 21.32525 35379 ft 447 kts
2026-05-06 11:50 48.76152 21.33037 35553 ft 447 kts
2026-05-06 11:50 48.79252 21.33547 35733 ft 447 kts
2026-05-06 11:51 48.82320 21.34052 35907 ft 447 kts
2026-05-06 11:51 48.85421 21.34567 36072 ft 447 kts
2026-05-06 11:51 48.88518 21.35081 36235 ft 447 kts
2026-05-06 11:51 48.91615 21.35594 36383 ft 447 kts
2026-05-06 11:52 48.94719 21.36109 36523 ft 448 kts
2026-05-06 11:52 48.97788 21.36616 36693 ft 447 kts
2026-05-06 11:52 49.00881 21.37130 36887 ft 444 kts
2026-05-06 11:52 49.03937 21.37640 36933 ft 440 kts
2026-05-06 11:53 49.10030 21.38656 36907 ft 439 kts
2026-05-06 11:53 49.16079 21.39667 36901 ft 439 kts
2026-05-06 11:54 49.22164 21.40689 36891 ft 439 kts
2026-05-06 11:54 49.28218 21.41706 36890 ft 440 kts
2026-05-06 11:55 49.34314 21.42723 36880 ft 439 kts
2026-05-06 11:55 49.40402 21.43755 36881 ft 440 kts
2026-05-06 11:56 49.46419 21.45240 36873 ft 440 kts
2026-05-06 11:56 49.52464 21.46831 36871 ft 440 kts
2026-05-06 11:57 49.58476 21.48412 36869 ft 440 kts
2026-05-06 11:57 49.64528 21.50014 36862 ft 441 kts
2026-05-06 11:58 49.70578 21.51611 36860 ft 440 kts
2026-05-06 11:58 49.76586 21.53196 36861 ft 440 kts
2026-05-06 11:59 49.82639 21.54801 36852 ft 441 kts
2026-05-06 11:59 49.88683 21.56406 36850 ft 440 kts
2026-05-06 12:00 49.94728 21.58024 36850 ft 441 kts
2026-05-06 12:00 50.00740 21.59627 36849 ft 441 kts
2026-05-06 12:01 50.06803 21.61260 36852 ft 443 kts
2026-05-06 12:01 50.12850 21.62903 36847 ft 441 kts
2026-05-06 12:02 50.18895 21.64540 36838 ft 441 kts
2026-05-06 12:02 50.24903 21.66180 36841 ft 441 kts
2026-05-06 12:03 50.30966 21.67831 36844 ft 442 kts
2026-05-06 12:03 50.37020 21.69477 36836 ft 441 kts
2026-05-06 12:04 50.43050 21.71124 36840 ft 441 kts
2026-05-06 12:04 50.49100 21.72772 36835 ft 441 kts
2026-05-06 12:05 50.55177 21.74447 36834 ft 442 kts
2026-05-06 12:05 50.61198 21.76104 36827 ft 442 kts
2026-05-06 12:06 50.67264 21.77775 36822 ft 443 kts
2026-05-06 12:06 50.73343 21.79439 36810 ft 442 kts
2026-05-06 12:07 50.79432 21.81124 36810 ft 443 kts
2026-05-06 12:07 50.85520 21.82820 36807 ft 447 kts
2026-05-06 12:08 50.91651 21.84516 36803 ft 448 kts
2026-05-06 12:08 50.97790 21.86254 36800 ft 448 kts
2026-05-06 12:09 51.03901 21.87959 36798 ft 447 kts
2026-05-06 12:09 51.10016 21.89675 36801 ft 448 kts
2026-05-06 12:10 51.16171 21.91419 36794 ft 448 kts
2026-05-06 12:10 51.22320 21.93151 36790 ft 449 kts
2026-05-06 12:11 51.28470 21.94902 36790 ft 449 kts
2026-05-06 12:11 51.34632 21.96649 36790 ft 449 kts
2026-05-06 12:12 51.40769 21.98384 36791 ft 450 kts
2026-05-06 12:12 51.46929 22.00146 36781 ft 450 kts
2026-05-06 12:13 51.53094 22.01883 36780 ft 449 kts
2026-05-06 12:13 51.59217 22.03654 36779 ft 449 kts
2026-05-06 12:14 51.65392 22.05464 36783 ft 451 kts
2026-05-06 12:14 51.71561 22.07232 36778 ft 450 kts
2026-05-06 12:15 51.77734 22.09016 36782 ft 450 kts
2026-05-06 12:15 51.83865 22.10800 36782 ft 452 kts
2026-05-06 12:16 51.90044 22.12611 36778 ft 451 kts
2026-05-06 12:16 51.96224 22.14407 36769 ft 450 kts
2026-05-06 12:17 52.02413 22.16205 36773 ft 450 kts
2026-05-06 12:17 52.08553 22.18019 36770 ft 451 kts
2026-05-06 12:18 52.14734 22.19840 36769 ft 451 kts
2026-05-06 12:18 52.20893 22.21937 36767 ft 451 kts 11°
2026-05-06 12:19 52.26990 22.24082 36761 ft 451 kts 11°
2026-05-06 12:19 52.33119 22.26245 36761 ft 450 kts 11°
2026-05-06 12:20 52.38220 22.28029 36761 ft 450 kts 11°
2026-05-06 12:20 52.44351 22.30206 36761 ft 450 kts 11°
2026-05-06 12:21 52.50489 22.32382 36761 ft 450 kts 11°
2026-05-06 12:21 52.56581 22.34541 36759 ft 450 kts 11°
2026-05-06 12:22 52.62714 22.36728 36760 ft 449 kts 11°
2026-05-06 12:22 52.68840 22.38916 36762 ft 450 kts 11°
2026-05-06 12:23 52.74916 22.41094 36750 ft 449 kts 11°
2026-05-06 12:23 52.81037 22.43301 36749 ft 449 kts 11°
2026-05-06 12:24 52.87162 22.45510 36751 ft 450 kts 11°
2026-05-06 12:24 52.93246 22.47700 36750 ft 449 kts 11°
2026-05-06 12:25 52.99363 22.49920 36750 ft 449 kts 11°
2026-05-06 12:25 53.05449 22.52111 36750 ft 450 kts 11°
2026-05-06 12:26 53.11576 22.54368 36750 ft 450 kts 11°
2026-05-06 12:26 53.17700 22.56612 36750 ft 451 kts 11°
2026-05-06 12:27 53.23795 22.58839 36750 ft 450 kts 11°
2026-05-06 12:27 53.29926 22.61089 36750 ft 450 kts 11°
2026-05-06 12:28 53.36062 22.63352 36750 ft 449 kts 11°
2026-05-06 12:28 53.42154 22.65615 36750 ft 450 kts 11°
2026-05-06 12:29 53.48289 22.67897 36750 ft 449 kts 11°
2026-05-06 12:29 53.54419 22.70176 36755 ft 449 kts 11°
2026-05-06 12:30 53.60526 22.72451 36760 ft 450 kts 11°
2026-05-06 12:30 53.66665 22.74744 36774 ft 450 kts 11°
2026-05-06 12:31 53.72792 22.77047 36781 ft 450 kts 11°
2026-05-06 12:31 53.78869 22.79334 36780 ft 450 kts 11°
2026-05-06 12:32 53.84989 22.81647 36779 ft 449 kts 11°
2026-05-06 12:32 53.91111 22.83991 36781 ft 450 kts 11°
2026-05-06 12:33 53.97234 22.86343 36782 ft 449 kts 12°
2026-05-06 12:33 54.03328 22.88655 36789 ft 451 kts 11°
2026-05-06 12:34 54.09374 22.91580 36791 ft 452 kts 20°
2026-05-06 12:34 54.15216 22.95473 36795 ft 453 kts 20°
2026-05-06 12:35 54.21090 22.99416 36801 ft 454 kts 20°
2026-05-06 12:35 54.26952 23.03350 36800 ft 453 kts 20°
2026-05-06 12:36 54.32890 23.06615 36806 ft 452 kts
2026-05-06 12:36 54.39055 23.08604 36808 ft 450 kts
2026-05-06 12:37 54.45216 23.10560 36815 ft 450 kts
2026-05-06 12:37 54.51392 23.12546 36823 ft 450 kts
2026-05-06 12:38 54.57515 23.14532 36823 ft 450 kts
2026-05-06 12:38 54.63688 23.16535 36830 ft 449 kts
2026-05-06 12:39 54.69828 23.18528 36828 ft 450 kts
2026-05-06 12:39 54.75995 23.20549 36831 ft 451 kts
2026-05-06 12:40 54.82170 23.22581 36843 ft 451 kts
2026-05-06 12:40 54.88295 23.24591 36839 ft 450 kts
2026-05-06 12:41 54.94460 23.26621 36844 ft 451 kts